This is the latest recevied weather packets stored in our database for station/object W0AVQ. If no packets are shown the sender has not sent any weather packets the latest 10 day(s).
| Time | Temp. | Humidity | Pressure | Rain* | Wind** | Luminosity | Snow |
|---|---|---|---|---|---|---|---|
| 1777938724 | 25° C | 50% | 1008.6 hPa | 0 mm | - | 39 W/m² | - |
| 1777938422 | 25° C | 49% | 1008.3 hPa | 0 mm | - | 59 W/m² | - |
| 1777938119 | 25° C | 49% | 1008.6 hPa | 0 mm | - | 49 W/m² | - |
| 1777937815 | 25° C | 49% | 1008.6 hPa | 0 mm | - | 38 W/m² | - |
| 1777937511 | 25.56° C | 48% | 1008.5 hPa | 0 mm | - | 46 W/m² | - |
| 1777937209 | 25.56° C | 47% | 1008.6 hPa | 0 mm | - | 89 W/m² | - |
| 1777936905 | 25.56° C | 48% | 1008.6 hPa | 0 mm | - | 83 W/m² | - |
| 1777936602 | 25.56° C | 48% | 1008.6 hPa | 0 mm | - | 111 W/m² | - |
| 1777936298 | 25.56° C | 48% | 1008.8 hPa | 0 mm | - | 123 W/m² | - |
| 1777935995 | 25.56° C | 48% | 1008.9 hPa | 0 mm | - | 58 W/m² | - |
| 1777935694 | 26.11° C | 46% | 1008.5 hPa | 0 mm | - | 178 W/m² | - |
| 1777935392 | 26.11° C | 47% | 1008.8 hPa | 0 mm | - | 208 W/m² | - |
| 1777935087 | 25.56° C | 47% | 1009.1 hPa | 0 mm | - | 162 W/m² | - |
| 1777934784 | 25.56° C | 48% | 1008.8 hPa | 0 mm | - | 149 W/m² | - |
| 1777934481 | 25.56° C | 48% | 1008.9 hPa | 0 mm | - | 150 W/m² | - |
| 1777934178 | 25.56° C | 47% | 1008.7 hPa | 0 mm | - | 116 W/m² | - |
| 1777933874 | 25.56° C | 46% | 1008.7 hPa | 0 mm | - | 116 W/m² | - |
| 1777933571 | 25.56° C | 47% | 1009 hPa | 0 mm | - | 117 W/m² | - |
| 1777933268 | 25.56° C | 47% | 1009 hPa | 0 mm | - | 154 W/m² | - |
| 1777932965 | 25.56° C | 46% | 1009 hPa | 0 mm | - | 90 W/m² | - |
| 1777932662 | 26.11° C | 46% | 1009.1 hPa | 0 mm | - | 133 W/m² | - |
| 1777932358 | 26.11° C | 46% | 1009.2 hPa | 0 mm | - | 79 W/m² | - |
| 1777932056 | 26.11° C | 45% | 1009.3 hPa | 0 mm | - | 73 W/m² | - |
| 1777931752 | 26.67° C | 45% | 1009.1 hPa | 0 mm | - | 72 W/m² | - |
| 1777931450 | 26.67° C | 45% | 1009.3 hPa | 0 mm | - | 78 W/m² | - |
* Rain latest hour (hover to see other rain measurements)
** Current wind speed in m/s (hover to see current wind gust speed)